This demonstration page uses our WeatherBlox Daily Observations layout. Learn more.

Left ArrowRight Arrow

Hourly Observations for August 28, 2021

Temp ( °F °C ) Dew Point ( °F °C ) Humidity (%) Winds ( mph kmh ) Pressure ( in mb ) Visibility ( mi km ) Precip ( " mm )
12:54 am 00:54 Clear 76 24.4 68 20 77 77 S 7 11 29.84 1011 10 16 0.00 0.00
1:54 am 01:54 Clear 75 23.9 67 19.4 76 76 S 8 13 29.85 1011 10 16 0.00 0.00
2:54 am 02:54 Clear 75 23.9 67 19.4 76 76 S 9 15 29.85 1011 10 16 0.00 0.00
3:54 am 03:54 Clear 75 23.9 67 19.4 76 76 S 10 17 29.86 1011 10 16 0.00 0.00
4:54 am 04:54 Clear 77 25 67 19.4 71 71 S 12 19 29.86 1011 10 16 0.00 0.00
5:54 am 05:54 Clear 77 25 67 19.4 71 71 S 13 20 29.87 1012 10 16 0.00 0.00
6:54 am 06:54 Sunny 76 24.4 67 19.4 74 74 S 13 20 29.88 1012 10 16 0.00 0.00
7:54 am 07:54 Sunny 78 25.6 68 20 71 71 S 15 24 29.89 1012 10 16 0.00 0.00
8:54 am 08:54 Sunny 81 27.2 68 20 65 65 SSW 16 26 29.90 1012 10 16 0.00 0.00
9:54 am 09:54 Sunny 84 28.9 69 20.6 61 61 SSW 17 28 29.90 1013 10 16 0.00 0.00
10:54 am 10:54 Sunny 88 31.1 70 21.1 55 55 SSW 16 26 29.90 1013 10 16 0.00 0.00
11:54 am 11:54 Sunny 90 32.2 69 20.6 50 50 S 16 26 29.90 1013 10 16 0.00 0.00
12:54 pm 12:54 Sunny 92 33.3 68 20 46 46 S 22 35 29.89 1012 10 16 0.00 0.00
1:54 pm 13:54 Sunny 94 34.4 69 20.6 44 44 S 20 31 29.88 1012 10 16 0.00 0.00
2:54 pm 14:54 Sunny 94 34.4 69 20.6 44 44 S 22 35 29.87 1012 10 16 0.00 0.00
3:54 pm 15:54 Mostly Sunny 95 35 69 20.6 43 43 S 15 24 29.86 1011 10 16 0.00 0.00
4:54 pm 16:54 Mostly Sunny 94 34.4 68 20 43 43 S 18 30 29.85 1011 10 16 0.00 0.00
5:54 pm 17:54 Sunny 93 33.9 65 18.3 40 40 S 21 33 29.85 1011 10 16 0.00 0.00
6:54 pm 18:54 Sunny 91 32.8 66 18.9 44 44 S 18 30 29.84 1011 10 16 0.00 0.00
7:54 pm 19:54 Sunny 87 30.6 68 20 53 53 SSE 18 30 29.84 1010 10 16 0.00 0.00
8:54 pm 20:54 Clear 85 29.4 68 20 57 57 S 17 28 29.84 1011 10 16 0.00 0.00
9:54 pm 21:54 Clear 83 28.3 67 19.4 59 59 S 16 26 29.86 1011 10 16 0.00 0.00
10:54 pm 22:54 Clear 82 27.8 66 18.9 58 58 SSW 10 17 29.90 1013 10 16 0.00 0.00
11:21 pm 23:21 Mostly Cloudy 79 26.1 60 15.6 52 52 N 22 35 29.95 1014 10 16 0.00 0.00
11:54 pm 23:54 Cloudy 75 23.9 60 15.6 60 60 N 17 28 30.00 1016 10 16 0.00 0.00

Powered by AerisWeather